BAW492 EGLL-LXGB

Flight info

Callsign BAW492
Flight time N/A
Altitude 37000
Route GASGU N866 SAM M195 MARUK N621 LELNA DCT ERCOZ DCT NOVAN DCT DELOG DCT CRISA DCT VULPE DCT MAR N864 PIMOS
Aircraft A320/M-SDE3FGHIRWY/LB1

Departure

Time 2026-05-06 21:55
Airport London Heathrow Airport (EGLL)

Arrival

Time N/A
Airport Gibraltar Airport (LXGB)
Time Latitude Longitude Altitude Speed Heading
2026-05-06 21:49 51.47576 -0.48667 87 ft 21 kts 270°
2026-05-06 21:49 51.47576 -0.48857 87 ft 13 kts 268°
2026-05-06 21:49 51.47592 -0.49004 88 ft 11 kts 309°
2026-05-06 21:50 51.47619 -0.49032 87 ft 2 kts 336°
2026-05-06 21:50 51.47621 -0.49033 87 ft 0 kts 337°
2026-05-06 21:53 51.47624 -0.49035 87 ft 2 kts 339°
2026-05-06 21:53 51.47650 -0.49043 87 ft 6 kts 353°
2026-05-06 21:53 51.47714 -0.49036 88 ft 13 kts 22°
2026-05-06 21:53 51.47748 -0.48896 87 ft 16 kts 90°
2026-05-06 21:54 51.47749 -0.48600 88 ft 52 kts 89°
2026-05-06 21:54 51.47752 -0.47671 85 ft 112 kts 90°
2026-05-06 21:54 51.47759 -0.46154 90 ft 158 kts 90°
2026-05-06 21:54 51.47757 -0.44329 586 ft 161 kts 88°
2026-05-06 21:55 51.47748 -0.42542 1299 ft 161 kts 91°
2026-05-06 21:55 51.47313 -0.40891 1820 ft 172 kts 138°
2026-05-06 21:55 51.46258 -0.39780 2148 ft 192 kts 147°
2026-05-06 21:55 51.45132 -0.38416 2421 ft 215 kts 128°
2026-05-06 21:56 51.44270 -0.36303 2801 ft 239 kts 121°
2026-05-06 21:56 51.43154 -0.34190 3324 ft 259 kts 143°
2026-05-06 21:56 51.41507 -0.32967 4157 ft 266 kts 168°
2026-05-06 21:56 51.39658 -0.32896 5062 ft 269 kts 192°
2026-05-06 21:57 51.37920 -0.34021 5767 ft 274 kts 215°
2026-05-06 21:57 51.36470 -0.35979 5964 ft 273 kts 223°
2026-05-06 21:57 51.35068 -0.38024 6005 ft 272 kts 224°
2026-05-06 21:57 51.33663 -0.40094 6394 ft 275 kts 223°
2026-05-06 21:58 51.32253 -0.42167 7291 ft 277 kts 224°
2026-05-06 21:58 51.30887 -0.44356 8129 ft 279 kts 235°
2026-05-06 21:58 51.30045 -0.47138 8940 ft 281 kts 255°
2026-05-06 21:58 51.29518 -0.50153 9776 ft 284 kts 256°
2026-05-06 21:59 51.28975 -0.53224 10340 ft 296 kts 255°
2026-05-06 21:59 51.28388 -0.56514 10551 ft 319 kts 255°
2026-05-06 21:59 51.27748 -0.59976 11040 ft 329 kts 254°
2026-05-06 21:59 51.27071 -0.63494 11709 ft 333 kts 253°
2026-05-06 22:00 51.26373 -0.67040 12417 ft 336 kts 253°
2026-05-06 22:00 51.25666 -0.70614 13119 ft 340 kts 253°
2026-05-06 22:00 51.24951 -0.74231 13834 ft 343 kts 253°
2026-05-06 22:00 51.24230 -0.77877 14457 ft 346 kts 253°
2026-05-06 22:01 51.23495 -0.81599 15087 ft 349 kts 253°
2026-05-06 22:01 51.22773 -0.85261 15695 ft 352 kts 253°
2026-05-06 22:01 51.22029 -0.89048 16320 ft 354 kts 253°
2026-05-06 22:01 51.21245 -0.92794 16926 ft 358 kts 248°
2026-05-06 22:02 51.20078 -0.96309 17541 ft 361 kts 237°
2026-05-06 22:02 51.18474 -0.99414 18165 ft 365 kts 225°
2026-05-06 22:02 51.16635 -1.02234 18732 ft 368 kts 225°
2026-05-06 22:02 51.14786 -1.05067 19295 ft 371 kts 225°
2026-05-06 22:03 51.12922 -1.07927 19863 ft 374 kts 225°
2026-05-06 22:03 51.11041 -1.10810 20434 ft 376 kts 225°
2026-05-06 22:03 51.09151 -1.13705 20990 ft 379 kts 225°
2026-05-06 22:03 51.07241 -1.16630 21532 ft 382 kts 225°
2026-05-06 22:04 51.05325 -1.19564 22065 ft 385 kts 225°
2026-05-06 22:04 51.03386 -1.22526 22597 ft 388 kts 225°
2026-05-06 22:04 51.01436 -1.25501 23124 ft 390 kts 225°
2026-05-06 22:04 50.99469 -1.28497 23640 ft 393 kts 225°
2026-05-06 22:05 50.97489 -1.31510 24069 ft 396 kts 225°
2026-05-06 22:05 50.95449 -1.34461 24494 ft 399 kts 219°
2026-05-06 22:05 50.93159 -1.36972 24913 ft 402 kts 214°
2026-05-06 22:05 50.90817 -1.39406 25336 ft 404 kts 214°
2026-05-06 22:06 50.88466 -1.41851 25750 ft 406 kts 214°
2026-05-06 22:06 50.86098 -1.44312 26154 ft 408 kts 214°
2026-05-06 22:06 50.83716 -1.46785 26554 ft 410 kts 214°
2026-05-06 22:06 50.81327 -1.49264 26939 ft 412 kts 214°
2026-05-06 22:07 50.78929 -1.51750 27318 ft 414 kts 214°
2026-05-06 22:07 50.76511 -1.54252 27704 ft 416 kts 214°
2026-05-06 22:07 50.74086 -1.56759 28077 ft 418 kts 214°
2026-05-06 22:07 50.71644 -1.59282 28445 ft 420 kts 214°
2026-05-06 22:08 50.69194 -1.61814 28807 ft 422 kts 214°
2026-05-06 22:08 50.66726 -1.64361 29166 ft 425 kts 214°
2026-05-06 22:08 50.64247 -1.66919 29516 ft 427 kts 214°
2026-05-06 22:08 50.61757 -1.69480 29871 ft 429 kts 214°
2026-05-06 22:09 50.59246 -1.72054 30197 ft 431 kts 214°
2026-05-06 22:09 50.56726 -1.74631 30486 ft 433 kts 214°
2026-05-06 22:09 50.54158 -1.77254 30791 ft 435 kts 214°
2026-05-06 22:09 50.51614 -1.79853 31081 ft 437 kts 214°
2026-05-06 22:10 50.49066 -1.82454 31421 ft 437 kts 214°
2026-05-06 22:10 50.46547 -1.85026 31816 ft 436 kts 214°
2026-05-06 22:10 50.43972 -1.87648 32237 ft 435 kts 214°
2026-05-06 22:10 50.41433 -1.90227 32646 ft 434 kts 214°
2026-05-06 22:11 50.38898 -1.92798 33053 ft 434 kts 214°
2026-05-06 22:11 50.36366 -1.95364 33459 ft 433 kts 214°
2026-05-06 22:11 50.33840 -1.97922 33874 ft 432 kts 214°
2026-05-06 22:11 50.31321 -2.00469 34245 ft 431 kts 214°
2026-05-06 22:12 50.28797 -2.03015 34546 ft 431 kts 214°
2026-05-06 22:12 50.26180 -2.05314 34817 ft 433 kts 205°
2026-05-06 22:12 50.23347 -2.06933 35093 ft 436 kts 196°
2026-05-06 22:12 50.20360 -2.07798 35354 ft 438 kts 186°
2026-05-06 22:13 50.17320 -2.08178 35604 ft 439 kts 186°
2026-05-06 22:13 50.14270 -2.08556 35863 ft 439 kts 186°
2026-05-06 22:13 50.11224 -2.08947 36119 ft 440 kts 186°
2026-05-06 22:13 50.08172 -2.09345 36374 ft 440 kts 186°
2026-05-06 22:14 50.05119 -2.09745 36620 ft 441 kts 186°
2026-05-06 22:14 50.02067 -2.10163 36861 ft 441 kts 188°
2026-05-06 22:14 49.99062 -2.11083 37004 ft 440 kts 198°
2026-05-06 22:14 49.96204 -2.12737 37027 ft 438 kts 207°
2026-05-06 22:15 49.91050 -2.17427 37026 ft 423 kts 212°
2026-05-06 22:15 49.86854 -2.21384 37027 ft 420 kts 212°
2026-05-06 22:16 49.81849 -2.26058 37023 ft 420 kts 212°
2026-05-06 22:16 49.76844 -2.30719 37024 ft 420 kts 212°
2026-05-06 22:17 49.71840 -2.35378 37025 ft 420 kts 212°
2026-05-06 22:17 49.66833 -2.40046 37029 ft 420 kts 212°
2026-05-06 22:18 49.61824 -2.44694 37026 ft 417 kts 212°
2026-05-06 22:18 49.56902 -2.49248 37028 ft 410 kts 212°
2026-05-06 22:19 49.52018 -2.53762 37030 ft 409 kts 212°
2026-05-06 22:19 49.47131 -2.58261 37026 ft 409 kts 212°
2026-05-06 22:20 49.42245 -2.62742 37029 ft 409 kts 212°
2026-05-06 22:20 49.37353 -2.67224 37032 ft 410 kts 212°
2026-05-06 22:21 49.32457 -2.71708 37028 ft 410 kts 212°
2026-05-06 22:21 49.27560 -2.76189 37027 ft 410 kts 212°
2026-05-06 22:22 49.22654 -2.80652 37024 ft 410 kts 212°
2026-05-06 22:22 49.17743 -2.85113 37031 ft 410 kts 212°
2026-05-06 22:23 49.12798 -2.89590 37021 ft 411 kts 212°
2026-05-06 22:23 49.07881 -2.94032 37020 ft 411 kts 212°
2026-05-06 22:24 49.02960 -2.98463 37020 ft 411 kts 212°
2026-05-06 22:24 48.98033 -3.02895 37021 ft 411 kts 212°
2026-05-06 22:25 48.93110 -3.07313 37024 ft 411 kts 211°
2026-05-06 22:25 48.88183 -3.11736 37025 ft 411 kts 212°
2026-05-06 22:26 48.83257 -3.16146 37033 ft 411 kts 211°
2026-05-06 22:26 48.78323 -3.20547 37030 ft 411 kts 211°
2026-05-06 22:27 48.73383 -3.24940 37029 ft 412 kts 211°
2026-05-06 22:27 48.68438 -3.29320 37033 ft 412 kts 211°
2026-05-06 22:28 48.63492 -3.33696 37032 ft 412 kts 211°
2026-05-06 22:28 48.58542 -3.38065 37027 ft 412 kts 211°
2026-05-06 22:29 48.53590 -3.42432 37028 ft 412 kts 211°
2026-05-06 22:29 48.48635 -3.46792 37028 ft 413 kts 211°
2026-05-06 22:30 48.43636 -3.51178 37025 ft 413 kts 211°
2026-05-06 22:30 48.38675 -3.55520 37023 ft 413 kts 211°
2026-05-06 22:31 48.33494 -3.59229 37023 ft 414 kts 197°
2026-05-06 22:31 48.27810 -3.60518 37019 ft 416 kts 182°
2026-05-06 22:32 48.22023 -3.60796 37016 ft 416 kts 182°
2026-05-06 22:32 48.16233 -3.61088 37013 ft 417 kts 182°
2026-05-06 22:33 48.10439 -3.61379 37016 ft 417 kts 183°
2026-05-06 22:33 48.04635 -3.61665 37015 ft 417 kts 182°
2026-05-06 22:34 47.98829 -3.61952 37018 ft 417 kts 182°
2026-05-06 22:34 47.93024 -3.62242 37022 ft 418 kts 182°
2026-05-06 22:35 47.87209 -3.62525 37023 ft 418 kts 182°
2026-05-06 22:35 47.81395 -3.62817 37024 ft 418 kts 182°
2026-05-06 22:36 47.75578 -3.63105 37026 ft 418 kts 183°
2026-05-06 22:36 47.69753 -3.63388 37025 ft 419 kts 182°
2026-05-06 22:37 47.63928 -3.63662 37023 ft 419 kts 182°
2026-05-06 22:37 47.58099 -3.63941 37020 ft 419 kts 182°
2026-05-06 22:38 47.52262 -3.64225 37015 ft 420 kts 183°
2026-05-06 22:38 47.46382 -3.64509 37009 ft 420 kts 183°
2026-05-06 22:39 47.40533 -3.64791 37006 ft 421 kts 183°
2026-05-06 22:39 47.34681 -3.65078 37004 ft 420 kts 183°
2026-05-06 22:40 47.28873 -3.65355 37009 ft 416 kts 183°
2026-05-06 22:40 47.23085 -3.65631 37008 ft 416 kts 183°
2026-05-06 22:41 47.14397 -3.66048 37007 ft 416 kts 183°
2026-05-06 22:42 47.08604 -3.66328 37011 ft 416 kts 182°
2026-05-06 22:42 47.02811 -3.66601 37011 ft 417 kts 182°
2026-05-06 22:43 46.97017 -3.66878 37013 ft 417 kts 182°
2026-05-06 22:43 46.91219 -3.67145 37011 ft 417 kts 182°
2026-05-06 22:44 46.85418 -3.67419 37009 ft 417 kts 182°
2026-05-06 22:44 46.79608 -3.67703 37009 ft 418 kts 182°
2026-05-06 22:45 46.73800 -3.67976 37008 ft 418 kts 183°
2026-05-06 22:45 46.67983 -3.68242 37011 ft 418 kts 182°
2026-05-06 22:46 46.62124 -3.68516 37012 ft 419 kts 182°
2026-05-06 22:46 46.56301 -3.68797 37015 ft 419 kts 183°
2026-05-06 22:47 46.50469 -3.69079 37015 ft 419 kts 182°
2026-05-06 22:47 46.44638 -3.69348 37013 ft 419 kts 182°
2026-05-06 22:48 46.38803 -3.69621 37016 ft 420 kts 182°
2026-05-06 22:48 46.33949 -3.69847 37023 ft 420 kts 182°
2026-05-06 22:49 46.28124 -3.70331 37022 ft 419 kts 186°
2026-05-06 22:49 46.22328 -3.71263 37030 ft 419 kts 188°
2026-05-06 22:50 46.16541 -3.72262 37029 ft 419 kts 187°
2026-05-06 22:50 46.10745 -3.73158 37029 ft 419 kts 187°
2026-05-06 22:51 46.04943 -3.73996 37033 ft 419 kts 187°
2026-05-06 22:51 45.99109 -3.74843 37034 ft 418 kts 187°
2026-05-06 22:52 45.93318 -3.75704 37035 ft 418 kts 187°
2026-05-06 22:52 45.87530 -3.76559 37037 ft 418 kts 187°
2026-05-06 22:53 45.81741 -3.77412 37035 ft 418 kts 187°
2026-05-06 22:53 45.75952 -3.78261 37036 ft 418 kts 187°
2026-05-06 22:54 45.70169 -3.79123 37035 ft 418 kts 187°
2026-05-06 22:54 45.64386 -3.79961 37047 ft 418 kts 187°
2026-05-06 22:55 45.58604 -3.80803 37039 ft 418 kts 187°
2026-05-06 22:55 45.52825 -3.81646 37035 ft 417 kts 187°
2026-05-06 22:56 45.47046 -3.82482 37031 ft 417 kts 187°
2026-05-06 22:56 45.41267 -3.83321 37028 ft 417 kts 187°
2026-05-06 22:57 45.35486 -3.84165 37032 ft 417 kts 187°
2026-05-06 22:57 45.29709 -3.85007 37026 ft 418 kts 187°
2026-05-06 22:58 45.23931 -3.85848 36997 ft 414 kts 187°
2026-05-06 22:58 45.18293 -3.86646 37028 ft 404 kts 187°
2026-05-06 22:59 45.12714 -3.87437 37029 ft 402 kts 188°
2026-05-06 22:59 45.07146 -3.88233 37030 ft 402 kts 188°
2026-05-06 23:00 45.01550 -3.89051 37029 ft 402 kts 188°
2026-05-06 23:00 44.95990 -3.89852 37029 ft 402 kts 188°
2026-05-06 23:01 44.90431 -3.90636 37030 ft 402 kts 188°
2026-05-06 23:01 44.84874 -3.91421 37032 ft 401 kts 188°
2026-05-06 23:02 44.79311 -3.92218 37028 ft 401 kts 188°
2026-05-06 23:02 44.73755 -3.93003 37033 ft 401 kts 188°
2026-05-06 23:03 44.68201 -3.93783 37038 ft 401 kts 188°
2026-05-06 23:03 44.62647 -3.94570 37032 ft 401 kts 188°
2026-05-06 23:04 44.57093 -3.95356 37036 ft 401 kts 188°
2026-05-06 23:04 44.51545 -3.96136 37028 ft 401 kts 188°
2026-05-06 23:05 44.45993 -3.96913 37038 ft 401 kts 188°
2026-05-06 23:05 44.40445 -3.97684 37038 ft 401 kts 188°
2026-05-06 23:06 44.34898 -3.98458 37040 ft 400 kts 188°
2026-05-06 23:06 44.29355 -3.99198 37038 ft 400 kts 187°
2026-05-06 23:07 44.23766 -3.99829 37040 ft 400 kts 187°
2026-05-06 23:07 44.18214 -4.00434 37032 ft 400 kts 187°
2026-05-06 23:08 44.12663 -4.01054 37035 ft 400 kts 187°
2026-05-06 23:08 44.07126 -4.01687 37036 ft 399 kts 187°
2026-05-06 23:09 44.01588 -4.02326 37035 ft 399 kts 187°
2026-05-06 23:09 43.96056 -4.02956 37038 ft 399 kts 187°
2026-05-06 23:10 43.90531 -4.03582 37038 ft 398 kts 187°
2026-05-06 23:10 43.85009 -4.04209 37034 ft 398 kts 187°
2026-05-06 23:11 43.79493 -4.04823 37032 ft 398 kts 187°
2026-05-06 23:11 43.73979 -4.05443 37032 ft 397 kts 187°
2026-05-06 23:12 43.68470 -4.06072 37031 ft 397 kts 187°
2026-05-06 23:12 43.62962 -4.06694 37035 ft 397 kts 187°
2026-05-06 23:13 43.57457 -4.07304 37034 ft 397 kts 187°
2026-05-06 23:13 43.51953 -4.07912 37034 ft 397 kts 187°
2026-05-06 23:14 43.46413 -4.08535 37035 ft 397 kts 187°
2026-05-06 23:14 43.40915 -4.09143 37032 ft 397 kts 187°
2026-05-06 23:15 43.35416 -4.09762 37036 ft 396 kts 187°
2026-05-06 23:15 43.29919 -4.10377 37036 ft 396 kts 187°
2026-05-06 23:16 43.24423 -4.10987 37039 ft 396 kts 187°
2026-05-06 23:16 43.18930 -4.11593 37039 ft 396 kts 187°
2026-05-06 23:17 43.13433 -4.12205 37037 ft 396 kts 188°
2026-05-06 23:17 43.07946 -4.12809 37040 ft 395 kts 187°
2026-05-06 23:18 43.02456 -4.13411 37040 ft 396 kts 188°
2026-05-06 23:18 42.96970 -4.14010 37035 ft 396 kts 188°
2026-05-06 23:19 42.91486 -4.14615 37039 ft 395 kts 188°
2026-05-06 23:19 42.86005 -4.15221 37040 ft 395 kts 188°
2026-05-06 23:20 42.80529 -4.15830 37045 ft 395 kts 188°
2026-05-06 23:20 42.75053 -4.16428 37043 ft 395 kts 188°
2026-05-06 23:21 42.69583 -4.17016 37043 ft 394 kts 188°
2026-05-06 23:21 42.64112 -4.17610 37036 ft 394 kts 188°
2026-05-06 23:22 42.59538 -4.18111 37035 ft 394 kts 188°
2026-05-06 23:22 42.54080 -4.18700 37034 ft 393 kts 188°
2026-05-06 23:23 42.48629 -4.19287 37032 ft 393 kts 188°
2026-05-06 23:23 42.43179 -4.19877 37027 ft 392 kts 188°
2026-05-06 23:24 42.37737 -4.20475 37028 ft 392 kts 188°
2026-05-06 23:24 42.32303 -4.21060 37023 ft 392 kts 188°
2026-05-06 23:25 42.26871 -4.21632 37020 ft 391 kts 188°
2026-05-06 23:25 42.21441 -4.22210 37018 ft 391 kts 188°
2026-05-06 23:26 42.16016 -4.22796 37013 ft 391 kts 188°
2026-05-06 23:26 42.10595 -4.23379 37004 ft 391 kts 188°
2026-05-06 23:27 42.05136 -4.23961 36997 ft 391 kts 188°
2026-05-06 23:27 41.99755 -4.24535 36995 ft 390 kts 188°
2026-05-06 23:28 41.94307 -4.25111 36991 ft 390 kts 188°
2026-05-06 23:28 41.88891 -4.25681 36990 ft 390 kts 188°
2026-05-06 23:29 41.83477 -4.26248 36987 ft 390 kts 188°
2026-05-06 23:29 41.78070 -4.26820 36981 ft 390 kts 188°
2026-05-06 23:30 41.72661 -4.27404 36982 ft 389 kts 188°
2026-05-06 23:30 41.67260 -4.27981 36975 ft 389 kts 188°
2026-05-06 23:31 41.61864 -4.28545 36974 ft 389 kts 188°
2026-05-06 23:31 41.56472 -4.29108 36969 ft 388 kts 188°
2026-05-06 23:32 41.51088 -4.29671 36962 ft 388 kts 188°
2026-05-06 23:32 41.45709 -4.30230 36962 ft 388 kts 188°
2026-05-06 23:33 41.40332 -4.30796 36957 ft 387 kts 188°
2026-05-06 23:33 41.34964 -4.31364 36956 ft 387 kts 188°
2026-05-06 23:34 41.29597 -4.31920 36954 ft 387 kts 188°
2026-05-06 23:34 41.24234 -4.32480 36950 ft 386 kts 188°
2026-05-06 23:35 41.18839 -4.33041 36949 ft 386 kts 188°
2026-05-06 23:35 41.13478 -4.33599 36950 ft 386 kts 188°
2026-05-06 23:36 41.08119 -4.34148 36950 ft 386 kts 188°
2026-05-06 23:36 41.02762 -4.34700 36950 ft 386 kts 188°
2026-05-06 23:37 40.97404 -4.35259 36950 ft 386 kts 188°
2026-05-06 23:37 40.92049 -4.35810 36948 ft 386 kts 188°
2026-05-06 23:38 40.86698 -4.36365 36949 ft 386 kts 188°
2026-05-06 23:38 40.81345 -4.36910 36949 ft 386 kts 188°
2026-05-06 23:39 40.75991 -4.37455 36959 ft 386 kts 188°
2026-05-06 23:39 40.70644 -4.38002 36947 ft 385 kts 188°
2026-05-06 23:40 40.65300 -4.38550 36963 ft 385 kts 188°
2026-05-06 23:40 40.59960 -4.39099 36942 ft 385 kts 188°
2026-05-06 23:41 40.54624 -4.39637 36939 ft 385 kts 188°
2026-05-06 23:41 40.49289 -4.40181 36938 ft 384 kts 188°
2026-05-06 23:42 40.43960 -4.40725 36935 ft 384 kts 188°
2026-05-06 23:42 40.38636 -4.41269 36930 ft 384 kts 188°
2026-05-06 23:43 40.33282 -4.41808 36927 ft 383 kts 188°
2026-05-06 23:43 40.27966 -4.42343 36926 ft 383 kts 188°
2026-05-06 23:44 40.22657 -4.42877 36930 ft 383 kts 188°
2026-05-06 23:44 40.17349 -4.43413 36920 ft 382 kts 188°
2026-05-06 23:45 40.12047 -4.43948 36919 ft 382 kts 188°
2026-05-06 23:45 40.06748 -4.44483 36914 ft 382 kts 188°
2026-05-06 23:46 40.01453 -4.45016 36915 ft 382 kts 188°
2026-05-06 23:46 39.96160 -4.45544 36916 ft 381 kts 188°
2026-05-06 23:47 39.90869 -4.46072 36911 ft 381 kts 188°
2026-05-06 23:47 39.85578 -4.46599 36915 ft 381 kts 188°
2026-05-06 23:48 39.80296 -4.47127 36915 ft 380 kts 188°
2026-05-06 23:48 39.75019 -4.47655 36913 ft 380 kts 188°
2026-05-06 23:49 39.69745 -4.48176 36914 ft 380 kts 188°
2026-05-06 23:49 39.64474 -4.48704 36912 ft 380 kts 188°
2026-05-06 23:50 39.59207 -4.49225 36914 ft 380 kts 188°
2026-05-06 23:50 39.51272 -4.50003 36911 ft 379 kts 187°
2026-05-06 23:51 39.46011 -4.50521 36907 ft 379 kts 188°
2026-05-06 23:51 39.40753 -4.51047 36903 ft 379 kts 188°
2026-05-06 23:52 39.35499 -4.51564 36905 ft 379 kts 187°
2026-05-06 23:52 39.30247 -4.52079 36906 ft 378 kts 187°
2026-05-06 23:53 39.24996 -4.52585 36898 ft 378 kts 188°
2026-05-06 23:53 39.19750 -4.53107 36900 ft 378 kts 187°
2026-05-06 23:54 39.14507 -4.53626 36900 ft 378 kts 187°
2026-05-06 23:54 39.10151 -4.54051 36900 ft 378 kts 187°
2026-05-06 23:55 39.04869 -4.54564 36895 ft 378 kts 187°
2026-05-06 23:55 38.99628 -4.55077 36894 ft 378 kts 187°
2026-05-06 23:56 38.94387 -4.55586 36894 ft 378 kts 188°
2026-05-06 23:56 38.89191 -4.56425 36894 ft 376 kts 192°
2026-05-06 23:57 38.84048 -4.57590 36893 ft 375 kts 193°
2026-05-06 23:57 38.78901 -4.58760 36898 ft 375 kts 192°
2026-05-06 23:58 38.73745 -4.59851 36895 ft 376 kts 192°
2026-05-06 23:58 38.68581 -4.60909 36900 ft 376 kts 192°
2026-05-06 23:59 38.63423 -4.61967 36901 ft 375 kts 192°
2026-05-06 23:59 38.58265 -4.63030 36903 ft 375 kts 192°
2026-05-07 00:00 38.53116 -4.64097 36905 ft 375 kts 192°
2026-05-07 00:00 38.47969 -4.65160 36905 ft 375 kts 192°
2026-05-07 00:01 38.42822 -4.66224 36911 ft 375 kts 192°
2026-05-07 00:01 38.37676 -4.67285 36914 ft 374 kts 192°
2026-05-07 00:02 38.32539 -4.68338 36909 ft 374 kts 192°
2026-05-07 00:02 38.27400 -4.69387 36915 ft 374 kts 192°
2026-05-07 00:03 38.22235 -4.70443 36920 ft 373 kts 193°
2026-05-07 00:03 38.17105 -4.71498 36919 ft 373 kts 193°
2026-05-07 00:04 38.11981 -4.72558 36923 ft 373 kts 193°
2026-05-07 00:04 38.06862 -4.73606 36923 ft 373 kts 193°
2026-05-07 00:05 38.01744 -4.74645 36930 ft 372 kts 193°
2026-05-07 00:05 37.96625 -4.75674 36930 ft 373 kts 193°
2026-05-07 00:06 37.91507 -4.76710 36932 ft 372 kts 193°
2026-05-07 00:06 37.88333 -4.77358 36930 ft 372 kts 193°
2026-05-07 00:13 37.83886 -4.78208 36540 ft 374 kts 193°
2026-05-07 00:13 37.81332 -4.78731 36288 ft 371 kts 193°
2026-05-07 00:13 37.78788 -4.79262 36033 ft 371 kts 193°
2026-05-07 00:14 37.73712 -4.80315 35963 ft 370 kts 193°
2026-05-07 00:14 37.71143 -4.80841 35302 ft 378 kts 193°
2026-05-07 00:14 37.68569 -4.81361 35070 ft 370 kts 193°
2026-05-07 00:15 37.66048 -4.81868 34790 ft 364 kts 193°
2026-05-07 00:15 37.63562 -4.82369 34460 ft 360 kts 193°
2026-05-07 00:15 37.61099 -4.82866 34131 ft 357 kts 193°
2026-05-07 00:15 37.58670 -4.83354 33527 ft 351 kts 193°
2026-05-07 00:16 37.56272 -4.83838 32815 ft 347 kts 193°
2026-05-07 00:16 37.53895 -4.84316 32221 ft 345 kts 193°
2026-05-07 00:16 37.51527 -4.84791 31802 ft 345 kts 193°
2026-05-07 00:16 37.49161 -4.85266 31377 ft 343 kts 193°
2026-05-07 00:17 37.46796 -4.85742 30958 ft 346 kts 193°
2026-05-07 00:17 37.44417 -4.86221 30543 ft 346 kts 193°
2026-05-07 00:17 37.42007 -4.86705 30171 ft 345 kts 193°
2026-05-07 00:17 37.39661 -4.87171 29989 ft 339 kts 193°
2026-05-07 00:18 37.37345 -4.87629 29649 ft 335 kts 193°
2026-05-07 00:18 37.35051 -4.88086 29281 ft 333 kts 193°
2026-05-07 00:18 37.32770 -4.88544 28884 ft 331 kts 193°
2026-05-07 00:18 37.30506 -4.89001 28498 ft 329 kts 193°
2026-05-07 00:19 37.28253 -4.89454 28105 ft 327 kts 193°
2026-05-07 00:19 37.26010 -4.89902 27714 ft 325 kts 193°
2026-05-07 00:19 37.23782 -4.90349 27331 ft 324 kts 193°
2026-05-07 00:19 37.21566 -4.90794 26947 ft 322 kts 193°
2026-05-07 00:20 37.19361 -4.91235 26565 ft 320 kts 193°
2026-05-07 00:20 37.17162 -4.91673 26176 ft 319 kts 193°
2026-05-07 00:20 37.14977 -4.92107 25811 ft 317 kts 193°
2026-05-07 00:20 37.12802 -4.92537 25448 ft 316 kts 193°
2026-05-07 00:21 37.10636 -4.92962 25085 ft 314 kts 193°
2026-05-07 00:21 37.08480 -4.93388 24732 ft 313 kts 193°
2026-05-07 00:21 37.06332 -4.93806 24378 ft 312 kts 191°
2026-05-07 00:21 37.04156 -4.93917 24032 ft 315 kts 182°
2026-05-07 00:22 37.01971 -4.93806 23697 ft 314 kts 182°
2026-05-07 00:22 36.99789 -4.93694 23329 ft 313 kts 182°
2026-05-07 00:22 36.97622 -4.93582 22934 ft 311 kts 182°
2026-05-07 00:22 36.95466 -4.93468 22521 ft 308 kts 182°
2026-05-07 00:23 36.93336 -4.93353 21856 ft 305 kts 182°
2026-05-07 00:23 36.91221 -4.93240 21309 ft 304 kts 182°
2026-05-07 00:23 36.89096 -4.93131 20903 ft 306 kts 181°
2026-05-07 00:23 36.86969 -4.93023 20506 ft 306 kts 181°
2026-05-07 00:24 36.84842 -4.92916 20102 ft 307 kts 181°
2026-05-07 00:24 36.82705 -4.92808 19725 ft 306 kts 181°
2026-05-07 00:24 36.80597 -4.92700 19434 ft 303 kts 181°
2026-05-07 00:24 36.78478 -4.92596 19094 ft 302 kts 181°
2026-05-07 00:25 36.76410 -4.92490 18680 ft 295 kts 181°
2026-05-07 00:25 36.74365 -4.92384 18170 ft 293 kts 181°
2026-05-07 00:25 36.72304 -4.92276 17725 ft 294 kts 180°
2026-05-07 00:25 36.70948 -4.92205 17463 ft 294 kts 180°
2026-05-07 00:26 36.68215 -4.92061 16949 ft 294 kts 180°
2026-05-07 00:26 36.66177 -4.91955 16672 ft 291 kts 180°
2026-05-07 00:26 36.64140 -4.91851 16231 ft 293 kts 180°
2026-05-07 00:26 36.62122 -4.91747 15937 ft 291 kts 180°
2026-05-07 00:27 36.60103 -4.91647 15494 ft 288 kts 180°
2026-05-07 00:27 36.58106 -4.91548 15117 ft 289 kts 180°
2026-05-07 00:27 36.56773 -4.91480 14915 ft 288 kts 180°
2026-05-07 00:27 36.54799 -4.91378 14727 ft 282 kts 180°
2026-05-07 00:28 36.52843 -4.91279 14460 ft 281 kts 180°
2026-05-07 00:28 36.50890 -4.91180 14182 ft 280 kts 180°
2026-05-07 00:28 36.49080 -4.91088 13905 ft 279 kts 180°
2026-05-07 00:28 36.47171 -4.90988 13554 ft 273 kts 179°
2026-05-07 00:29 36.45318 -4.90890 12999 ft 270 kts 179°
2026-05-07 00:29 36.43449 -4.90791 12438 ft 268 kts 179°
2026-05-07 00:30 36.37888 -4.90505 11022 ft 263 kts 178°
2026-05-07 00:30 36.36242 -4.90418 10546 ft 261 kts 178°
2026-05-07 00:30 36.35568 -4.90384 10355 ft 260 kts 178°
2026-05-07 00:30 36.33868 -4.90309 9860 ft 259 kts 178°
2026-05-07 00:31 36.32054 -4.90221 9303 ft 257 kts 178°
2026-05-07 00:31 36.30276 -4.90129 8781 ft 254 kts 178°
2026-05-07 00:31 36.28526 -4.90037 8398 ft 246 kts 178°
2026-05-07 00:31 36.26868 -4.89952 8168 ft 233 kts 178°
2026-05-07 00:32 36.25271 -4.89869 7740 ft 228 kts 178°
2026-05-07 00:32 36.23691 -4.89786 7263 ft 226 kts 178°
2026-05-07 00:32 36.22124 -4.89705 6791 ft 224 kts 178°
2026-05-07 00:32 36.20570 -4.89624 6392 ft 225 kts 178°
2026-05-07 00:33 36.19010 -4.89555 6115 ft 222 kts 182°
2026-05-07 00:33 36.17515 -4.89948 5805 ft 220 kts 204°
2026-05-07 00:33 36.16254 -4.91004 5489 ft 220 kts 225°
2026-05-07 00:33 36.15395 -4.92558 5182 ft 220 kts 246°
2026-05-07 00:34 36.15051 -4.94397 4879 ft 222 kts 266°
2026-05-07 00:34 36.15059 -4.96310 4570 ft 222 kts 268°
2026-05-07 00:34 36.15069 -4.98207 4260 ft 220 kts 268°
2026-05-07 00:34 36.15077 -5.00100 3983 ft 219 kts 269°
2026-05-07 00:35 36.15084 -5.01971 3714 ft 217 kts 269°
2026-05-07 00:35 36.15090 -5.03830 3440 ft 215 kts 269°
2026-05-07 00:35 36.15095 -5.05680 3162 ft 214 kts 269°
2026-05-07 00:35 36.15099 -5.07506 2996 ft 212 kts 269°
2026-05-07 00:36 36.15103 -5.09346 3001 ft 219 kts 269°
2026-05-07 00:36 36.15105 -5.11251 3002 ft 222 kts 269°
2026-05-07 00:36 36.15109 -5.13172 2994 ft 223 kts 270°
2026-05-07 00:36 36.15111 -5.15081 2840 ft 221 kts 270°
2026-05-07 00:37 36.15113 -5.16976 2554 ft 220 kts 270°
2026-05-07 00:37 36.15116 -5.18829 2423 ft 211 kts 269°
2026-05-07 00:37 36.15119 -5.20604 2269 ft 202 kts 270°
2026-05-07 00:37 36.15122 -5.22276 2171 ft 184 kts 269°
2026-05-07 00:38 36.15124 -5.23775 2002 ft 167 kts 269°
2026-05-07 00:38 36.15118 -5.25143 1819 ft 150 kts 270°
2026-05-07 00:38 36.15140 -5.26393 1584 ft 141 kts 274°
2026-05-07 00:38 36.15222 -5.27568 1350 ft 135 kts 274°
2026-05-07 00:39 36.15285 -5.28702 1059 ft 130 kts 272°
2026-05-07 00:39 36.15290 -5.29815 796 ft 129 kts 267°
2026-05-07 00:39 36.15259 -5.30926 557 ft 130 kts 268°
2026-05-07 00:39 36.15219 -5.32039 421 ft 129 kts 267°
2026-05-07 00:40 36.15167 -5.33154 249 ft 130 kts 266°
2026-05-07 00:40 36.15140 -5.34260 44 ft 129 kts 268°
2026-05-07 00:40 36.15110 -5.35380 237 ft 136 kts 268°
2026-05-07 00:40 36.15024 -5.36630 837 ft 159 kts 258°
2026-05-07 00:41 36.14558 -5.37900 1573 ft 165 kts 234°
2026-05-07 00:41 36.13649 -5.38876 1983 ft 191 kts 211°
2026-05-07 00:41 36.12364 -5.39418 1967 ft 230 kts 191°
2026-05-07 00:41 36.10877 -5.39431 1797 ft 229 kts 172°
2026-05-07 00:42 36.09428 -5.38754 1845 ft 223 kts 145°
2026-05-07 00:42 36.09069 -5.38379 1873 ft 225 kts 135°
2026-05-07 00:42 36.08298 -5.36453 1951 ft 228 kts 99°
2026-05-07 00:42 36.08177 -5.34495 1974 ft 229 kts 91°
2026-05-07 00:43 36.08153 -5.32655 1979 ft 228 kts 90°
2026-05-07 00:43 36.08274 -5.30702 1965 ft 229 kts 71°
2026-05-07 00:43 36.09101 -5.29065 1748 ft 223 kts 37°
2026-05-07 00:43 36.10363 -5.28086 1575 ft 203 kts 27°
2026-05-07 00:44 36.11517 -5.27308 1394 ft 178 kts 24°
2026-05-07 00:44 36.12621 -5.26958 1278 ft 152 kts 353°
2026-05-07 00:44 36.13572 -5.27334 1136 ft 140 kts 328°
2026-05-07 00:44 36.14344 -5.28008 989 ft 134 kts 313°
2026-05-07 00:45 36.14909 -5.28901 820 ft 131 kts 296°
2026-05-07 00:45 36.15204 -5.29951 563 ft 129 kts 277°
2026-05-07 00:45 36.15226 -5.31057 357 ft 128 kts 267°
2026-05-07 00:45 36.15200 -5.32161 275 ft 129 kts 268°
2026-05-07 00:46 36.15192 -5.32497 239 ft 128 kts 267°